Weather History for Lulea-Kallax, Sweden

Change the Weather History Date:

Sunday, December 30, 2012

  Actual Average Record
Temperature  
Mean Temperature 27 °F -  
Max Temperature 35 °F - - ()
Min Temperature 19 °F - - ()
Degree Days  
Heating Degree Days 38    
Moisture  
Dew Point 32 °F    
Average Humidity 96    
Maximum Humidity 100    
Minimum Humidity 93    
Precipitation  
Precipitation 0.08 in - - ()
Sea Level Pressure  
Sea Level Pressure 29.36 in    
Wind  
Wind Speed 20 mph ()    
Max Wind Speed 28 mph    
Max Gust Speed 31 mph    
Visibility 2.5 miles    
Events Fog , Rain , Snow    
T = Trace of Precipitation, MM = Missing Value Source: Averaged Metar Reports

Daily Weather History Graph

Daily Weather History Graph

Search for Another Location

Airport:

Trip Planner

Search our weather history database for the weather conditions in past years. The results will help you decide how hot, cold, wet, or windy it might be!

Date:

Astronomy

Dec. 30, 2012 Rise Set
Actual Time 9:51 AM CET 1:17 PM CET
Civil Twilight 8:20 AM CET 2:47 PM CET
Nautical Twilight 7:06 AM CET 4:01 PM CET
Astronomical Twilight 6:03 AM CET 5:05 PM CET
Moon 4:56 PM CET (12/30) 9:29 AM CET (12/30)
Length of Visible Light 6h 27m
Length of Day
3h 26m
Waning Gibbous, 96% of the Moon is Illuminated
Dec 30
Waning Gibbous
Jan 5
Last Quarter
Jan 11
New
Jan 19
First Quarter
Jan 27
Full

Hourly Weather History & Observations

Time (CET) Temp. Windchill Dew Point Humidity Pressure Visibility Wind Dir Wind Speed Gust Speed Precip Events Conditions
12:00 AM 28 °F - 27 °F 96% 29.67 in 1 mi SE 26.8 mph - -   Unknown Precipitation
12:20 AM 28.4 °F 13.3 °F 28.4 °F 100% 29.65 in 0.9 mi SE 27.6 mph - N/A   Overcast
12:50 AM 28.4 °F 13.5 °F 28.4 °F 100% 29.62 in 1.2 mi SE 26.5 mph - N/A   Overcast
1:00 AM 28 °F - 28 °F 99% 29.63 in 1 mi SSE 24.6 mph - -   Unknown Precipitation
1:20 AM 30.2 °F 16.5 °F 28.4 °F 93% 29.62 in 0.9 mi SE 24.2 mph - N/A   Overcast
1:50 AM 30.2 °F 15.9 °F 28.4 °F 93% 29.59 in 1.0 mi SSE 26.5 mph - N/A   Overcast
2:00 AM 29 °F - 28 °F 97% 29.60 in 1 mi SSE 26.8 mph - -   Unknown Precipitation
2:20 AM 30.2 °F 15.9 °F 28.4 °F 93% 29.56 in 1.2 mi SE 26.5 mph - N/A   Overcast
2:50 AM 30.2 °F 15.7 °F 28.4 °F 93% 29.56 in 0.5 mi SSE 27.6 mph - N/A   Overcast
3:00 AM 29 °F - 28 °F 97% 29.56 in 0 mi SSE 26.8 mph - - Snow Snow
3:20 AM 30.2 °F 15.9 °F 28.4 °F 93% 29.53 in 0.3 mi SSE 26.5 mph - N/A Snow Snow
3:50 AM 30.2 °F 15.9 °F 28.4 °F 93% 29.50 in 0.7 mi SE 26.5 mph - N/A Snow Light Snow
4:20 AM 30.2 °F 15.9 °F 28.4 °F 93% 29.50 in 1.1 mi SE 26.5 mph - N/A Rain , Snow Light Freezing Rain
4:50 AM 30.2 °F 16.2 °F 28.4 °F 93% 29.47 in 1.8 mi SE 25.3 mph - N/A Rain , Snow Light Freezing Rain
5:00 AM 29 °F - 29 °F 99% 29.49 in 4 mi SSE 24.6 mph - - Snow Light Snow
5:20 AM 32.0 °F 18.9 °F 30.2 °F 93% 29.47 in 5.0 mi SSE 24.2 mph - N/A   Overcast
5:50 AM 32.0 °F 19.8 °F 30.2 °F 93% 29.44 in 4.3 mi SSE 20.7 mph - N/A Rain , Snow Light Rain
6:00 AM 31 °F - 31 °F 97% 29.46 in 6 mi SSE 22.4 mph - - Snow Light Snow
6:20 AM 32.0 °F 19.8 °F 32.0 °F 100% 29.44 in 3.1 mi SSE 20.7 mph - N/A   Overcast
6:50 AM 32.0 °F 19.8 °F 32.0 °F 100% 29.42 in 6.2 mi SSE 20.7 mph - N/A   Overcast
7:00 AM 32 °F - 31 °F 96% 29.43 in 3 mi SSE 20.1 mph - - Snow Snow
7:20 AM 32.0 °F 20.8 °F 32.0 °F 100% 29.42 in 4.3 mi SSE 17.3 mph - N/A   Light Drizzle
7:50 AM 33.8 °F 23.2 °F 32.0 °F 93% 29.39 in 4.3 mi SSE 17.3 mph - N/A   Light Drizzle
8:00 AM 32 °F - 32 °F 99% 29.41 in 4 mi South 17.9 mph - - Rain Light Rain Showers
8:20 AM 33.8 °F 22.5 °F 32.0 °F 93% 29.39 in 3.1 mi SSE 19.6 mph - N/A   Overcast
8:50 AM 33.8 °F 22.8 °F 32.0 °F 93% 29.39 in 0.9 mi SSE 18.4 mph - N/A Rain , Snow Light Rain
9:00 AM 33 °F - 32 °F 95% 29.39 in 4 mi South 20.1 mph - - Rain Light Rain Showers
9:20 AM 33.8 °F 22.2 °F 33.8 °F 100% 29.39 in 1.8 mi SSE 20.7 mph - N/A   Overcast
9:50 AM 33.8 °F 22.2 °F 33.8 °F 100% 29.36 in 1.2 mi SSE 20.7 mph - N/A   Overcast
10:20 AM 33.8 °F 21.9 °F 33.8 °F 100% 29.36 in 1.2 mi SSE 21.9 mph - N/A   Overcast
11:00 AM 34 °F - 33 °F 95% 29.35 in 1 mi SSE 22.4 mph - -   Mist
11:20 AM 33.8 °F 22.2 °F 33.8 °F 100% 29.33 in 1.4 mi SSE 20.7 mph - N/A   Overcast
11:50 AM 33.8 °F 22.2 °F 33.8 °F 100% 29.33 in 1.2 mi SSE 20.7 mph - N/A   Overcast
12:00 PM 34 °F - 33 °F 96% 29.33 in 1 mi SSE 20.1 mph - -   Mist
12:20 PM 35.6 °F 24.5 °F 33.8 °F 93% 29.30 in 1.4 mi SSE 20.7 mph - N/A   Overcast
12:50 PM 35.6 °F 24.5 °F 33.8 °F 93% 29.30 in 1.4 mi SSE 20.7 mph - N/A Rain Light Rain
1:00 PM 34 °F - 34 °F 98% 29.31 in 2 mi South 20.1 mph - - Rain Light Rain Showers
1:20 PM 35.6 °F 24.5 °F 33.8 °F 93% 29.30 in 1.6 mi South 20.7 mph - N/A   Drizzle
1:50 PM 35.6 °F 24.5 °F 33.8 °F 93% 29.27 in - South 20.7 mph - N/A Rain Light Rain
2:00 PM 34 °F - 33 °F 97% 29.28 in 2 mi South 20.1 mph - - Rain Light Rain Showers
2:20 PM 35.6 °F 24.5 °F 33.8 °F 93% 29.27 in 1.6 mi South 20.7 mph - N/A Rain Light Rain
2:50 PM 35.6 °F 24.5 °F 35.6 °F 100% 29.24 in - South 20.7 mph - N/A Rain Light Rain
3:00 PM 34 °F - 34 °F 99% 29.26 in 3 mi South 20.1 mph - - Snow Light Snow
3:20 PM 35.6 °F 24.8 °F 33.8 °F 93% 29.24 in 4.3 mi South 19.6 mph - N/A Rain , Snow Light Rain
3:50 PM 33.8 °F 22.5 °F 33.8 °F 100% 29.24 in - South 19.6 mph 31.1 mph N/A Rain , Snow Light Rain
4:20 PM 33.8 °F 22.2 °F 33.8 °F 100% 29.24 in - South 20.7 mph - N/A Rain , Snow Light Rain
4:50 PM 33.8 °F 22.8 °F 33.8 °F 100% 29.24 in 6.2 mi South 18.4 mph - N/A Rain Light Rain
5:00 PM 34 °F - 33 °F 94% 29.25 in 10 mi South 17.9 mph - - Rain Light Rain
5:20 PM 35.6 °F 25.5 °F 33.8 °F 93% 29.24 in 6.2 mi South 17.3 mph - N/A   Mostly Cloudy
5:50 PM 35.6 °F 25.2 °F 33.8 °F 93% 29.24 in 3.7 mi South 18.4 mph - N/A   Mostly Cloudy
6:00 PM 34 °F - 33 °F 97% 29.25 in 2 mi South 15.7 mph - -   Mist
6:20 PM 35.6 °F 25.9 °F 33.8 °F 93% 29.24 in 1.1 mi South 16.1 mph - N/A   Mist
6:50 PM 35.6 °F 26.2 °F 33.8 °F 93% 29.24 in 0.4 mi South 15.0 mph - N/A Fog Fog
7:00 PM 34 °F - 34 °F 98% 29.26 in 0 mi South 13.4 mph - - Fog Fog
7:20 PM 35.6 °F 26.6 °F 33.8 °F 93% 29.24 in - South 13.8 mph - N/A Fog Fog
7:50 PM 35.6 °F 26.6 °F 33.8 °F 93% 29.24 in 0.4 mi South 13.8 mph - N/A Fog Fog
8:00 PM 34 °F - 34 °F 98% 29.25 in 0 mi SSW 11.2 mph - - Fog Fog
8:20 PM 33.8 °F 25.3 °F 33.8 °F 100% 29.21 in 0.6 mi South 11.5 mph - N/A Fog Fog
8:50 PM 33.8 °F 24.3 °F 33.8 °F 100% 29.21 in 0.7 mi South 13.8 mph - N/A   Overcast
9:00 PM 34 °F - 33 °F 96% 29.25 in 2 mi South 8.9 mph - - Fog Fog
9:20 PM 35.6 °F 28.6 °F 33.8 °F 93% 29.24 in 3.1 mi South 9.2 mph - N/A   Overcast
9:50 PM 35.6 °F 28.0 °F 33.8 °F 93% 29.24 in 2.5 mi South 10.4 mph - N/A   Overcast
10:20 PM 33.8 °F 27.0 °F 33.8 °F 100% 29.24 in 1.3 mi South 8.1 mph - N/A   Mist
10:50 PM 33.8 °F 28.6 °F 33.8 °F 100% 29.24 in 6.2 mi South 5.8 mph - N/A   Unknown
11:00 PM 33 °F - 33 °F 98% 29.26 in 6 mi South 6.7 mph - -   Mist
11:20 PM 33.8 °F 26.4 °F 33.8 °F 100% 29.24 in 5.6 mi SSE 9.2 mph - N/A   Overcast
11:50 PM 33.8 °F 25.8 °F 33.8 °F 100% 29.24 in 6.2 mi South 10.4 mph - N/A   Overcast